GFSFLT1_925_temp_195.txt.gz
Temp
25 27 27 28 27 25 23 21 20 19 19 19 19 19 19 20 20 20 20 20 20 19 19 19 19 18 18 18 18 17 16 17
20 20 23 27 26 25 23 20 19 19 19 18 18 18 18 19 19 20 19 20 20 19 19 19 19 18 18 17 17 16 15 15
17 17 19 20 23 23 21 21 20 19 19 19 18 18 18 19 19 19 19 19 19 19 19 19 19 18 17 16 16 15 14 14
17 16 16 19 20 21 21 20 19 19 19 19 18 18 18 18 18 19 18 18 18 19 18 19 19 18 18 17 16 16 14 12
16 15 14 16 17 19 20 20 19 18 19 19 19 19 17 17 18 18 18 18 18 18 18 18 18 17 16 16 15 15 14 12
15 14 14 15 16 18 19 19 19 18 18 19 19 18 18 17 17 17 17 17 17 17 16 16 16 16 16 16 14 14 13 11
14 13 15 15 16 17 17 17 16 17 17 17 18 18 18 17 16 16 16 15 16 16 15 15 14 15 15 14 13 13 12 12
14 13 13 14 15 17 17 17 17 17 18 18 18 18 18 17 16 15 14 14 13 13 13 13 13 12 13 12 12 11 12 11
15 14 13 14 16 16 16 16 15 16 16 16 16 16 16 15 15 14 14 13 13 13 12 12 12 11 11 11 11 11 11 11
16 14 14 15 15 16 16 15 14 15 15 16 15 15 14 14 14 13 13 12 12 11 11 11 11 10 10 10 10 10 10 10
16 14 15 15 15 15 15 15 15 15 15 14 14 13 13 12 12 12 11 11 10 10 10 10 10 10 10 10 10 9 10 10
16 14 15 15 15 14 13 14 14 13 13 12 12 12 12 12 12 11 11 10 10 9 9 9 9 9 8 8 9 9 8 8
14 15 15 14 13 13 12 12 12 12 12 12 11 10 10 10 10 10 9 9 8 8 8 8 8 8 8 8 7 7 7 7
11 11 11 11 12 12 11 11 11 11 11 11 10 9 9 9 9 9 8 8 7 7 8 7 7 7 7 6 6 6 6 6
10 9 10 10 10 10 11 11 11 11 10 10 9 9 9 9 9 8 8 8 7 7 7 8 8 7 6 6 6 6 6 5
9 9 9 10 10 11 11 11 11 11 10 10 10 9 8 8 8 8 8 7 7 7 7 7 7 6 6 6 6 5 5 5
9 9 9 9 10 10 11 11 11 12 12 11 11 10 9 8 7 8 7 7 7 7 7 7 7 6 6 6 6 5 5 5
10 9 9 10 10 10 11 10 10 10 10 10 10 9 9 9 8 7 7 7 7 7 7 7 6 6 6 6 6 5 5 4
9 9 10 11 11 12 11 11 10 10 10 10 10 9 9 8 8 7 7 7 7 7 6 6 6 5 5 5 5 5 4 4

GFSFLT1_925_temp_198.txt.gz
Temp
25 27 25 25 26 25 24 23 21 19 18 18 18 18 18 17 18 18 19 20 19 19 18 18 19 19 18 18 17 17 16 16
22 22 22 20 24 24 23 21 20 19 17 17 17 17 17 18 18 19 19 19 19 19 18 18 18 18 18 18 17 16 14 14
18 18 18 18 21 21 20 20 20 18 18 17 18 17 17 18 18 18 19 19 19 19 18 18 18 17 17 17 17 15 13 14
18 16 15 17 17 19 20 19 18 18 18 17 18 18 17 17 17 18 18 18 18 18 18 18 17 17 17 16 16 15 13 12
17 15 14 15 16 18 19 19 18 18 18 18 18 17 17 16 16 17 18 17 17 17 17 17 17 16 16 16 16 15 14 12
16 14 14 15 16 17 18 18 18 18 18 18 18 18 18 17 17 17 16 16 16 17 17 17 17 17 16 16 15 14 14 13
14 14 14 15 16 17 16 18 18 18 18 18 18 18 18 18 17 16 16 16 16 16 16 16 16 15 15 15 14 13 13 13
13 14 13 14 16 16 16 16 16 16 17 17 17 17 17 17 17 16 15 16 16 15 15 15 14 14 13 13 13 12 12 11
14 13 13 14 15 15 15 15 15 15 16 16 16 16 16 16 16 16 15 15 14 14 14 14 14 14 13 12 12 12 12 12
14 13 14 14 14 14 14 14 14 15 16 16 16 16 15 15 15 14 14 14 14 13 13 13 12 12 12 11 11 11 11 11
14 13 14 14 14 14 13 13 13 13 14 14 14 14 13 13 12 12 12 12 11 12 11 11 11 11 11 11 10 10 10 10
15 14 14 14 13 13 13 13 12 12 12 13 12 12 11 11 11 11 11 12 11 11 10 10 10 10 10 9 9 10 9 9
11 13 13 12 12 12 11 11 12 11 11 10 10 11 11 10 10 10 10 10 10 10 9 9 9 9 9 8 9 9 9 9
11 11 12 11 11 11 11 11 10 10 10 10 10 9 9 9 9 9 9 9 9 9 8 8 8 8 8 8 8 8 8 8
10 10 10 10 10 11 11 11 11 10 10 10 9 9 9 9 9 9 8 8 8 8 8 8 8 8 7 7 7 7 7 6
9 9 10 10 10 10 10 11 11 11 11 10 10 10 10 9 9 9 9 8 8 8 7 7 7 7 7 7 7 6 6 6
9 9 9 9 10 10 11 11 11 11 12 11 11 11 10 9 9 8 8 8 7 7 7 7 7 7 7 7 7 6 6 5
9 9 8 9 10 11 11 11 11 11 11 11 10 10 10 9 8 8 8 8 7 7 7 7 7 7 7 7 7 6 5 5
9 8 9 10 11 11 10 10 10 10 10 10 10 10 10 9 8 8 7 7 7 7 7 7 6 7 7 6 6 5 5 5

GFSFLT1_925_temp_204.txt.gz
Temp
33 32 30 29 29 27 27 26 23 22 21 21 21 21 21 21 21 21 21 18 18 18 20 20 19 19 19 19 20 19 19 20
33 30 27 25 25 26 25 25 23 22 21 21 21 21 21 21 21 21 20 18 17 17 18 18 18 19 20 18 18 18 17 17
33 30 27 25 24 24 24 24 23 21 22 21 19 19 19 20 19 18 17 18 17 17 17 17 17 18 18 18 16 16 15 14
32 30 26 23 22 22 22 23 22 21 21 19 18 17 17 17 17 17 17 17 17 17 17 17 18 18 17 17 17 16 15 14
30 28 25 23 21 20 21 22 21 21 20 17 18 18 17 17 16 17 17 17 17 17 17 17 17 17 17 17 16 16 16 14
30 27 24 21 19 18 20 20 20 19 17 17 18 21 20 17 16 16 16 17 17 17 17 17 16 16 16 16 16 16 16 15
28 25 21 20 17 17 17 17 17 16 17 17 18 18 17 17 16 16 16 16 16 16 17 16 16 16 16 16 16 15 15 15
27 25 24 20 18 17 17 17 17 17 18 18 18 18 17 17 16 15 15 15 15 16 16 16 16 16 15 15 15 15 14 14
26 26 24 19 17 17 16 16 15 16 16 16 17 17 17 17 16 15 15 15 15 15 15 15 15 15 13 13 13 13 13 13
26 25 23 18 16 16 16 15 15 15 15 15 15 16 16 15 15 15 14 13 14 14 14 13 13 13 12 12 13 13 13 13
26 25 22 20 15 14 14 14 14 14 14 14 14 14 14 13 13 13 12 12 12 12 12 12 12 12 11 11 11 11 11 11
26 24 21 20 17 14 13 13 13 13 12 12 12 12 12 13 13 12 12 12 12 12 12 11 11 11 10 11 11 10 11 10
25 24 21 19 18 16 13 12 13 12 12 12 12 12 13 13 13 12 12 12 11 11 11 11 10 10 10 10 10 11 10 10
24 23 21 20 18 17 14 13 12 12 13 13 13 13 13 13 13 12 11 11 11 11 10 10 10 9 9 9 9 9 9 9
23 22 21 19 17 16 16 14 13 12 12 13 12 12 12 11 11 11 10 10 10 10 9 9 8 8 8 8 8 9 8 9
20 17 15 15 14 14 14 13 12 12 12 12 12 11 11 10 10 10 10 9 9 9 8 8 8 8 8 8 8 8 8 8
18 15 14 13 12 12 12 12 13 13 13 13 12 11 11 10 9 9 9 9 9 8 8 7 7 7 8 8 7 7 7 7
17 16 15 14 14 13 13 13 12 12 12 12 12 11 12 11 11 11 11 10 9 9 8 8 8 7 7 7 7 6 6 6
16 16 15 14 13 13 12 12 12 12 11 11 10 10 10 9 9 9 9 9 9 8 8 8 8 7 8 8 7 6 6 5

GFSFLT1_925_temp_207.txt.gz
Temp
35 35 35 35 34 33 32 30 27 25 24 23 23 23 23 23 23 23 23 21 20 21 22 23 22 21 22 20 21 22 22 22
36 35 35 33 32 30 30 30 28 25 24 24 24 24 24 23 23 23 23 21 20 20 21 21 21 20 20 20 21 21 20 21
36 35 34 31 30 29 29 28 28 25 24 24 25 24 24 24 24 23 23 20 19 19 19 20 19 19 20 20 19 19 19 18
36 36 34 31 29 27 26 26 27 26 25 24 24 23 22 22 23 22 21 19 19 18 18 18 18 19 19 19 18 18 16 16
36 35 33 30 28 25 24 25 25 26 24 24 20 20 19 20 19 19 19 18 18 17 18 17 18 18 18 18 18 17 16 15
35 34 31 28 25 22 24 24 25 25 24 21 19 20 20 19 18 17 17 17 17 17 17 17 17 17 18 18 17 17 17 16
34 32 28 27 22 19 21 23 23 23 22 19 19 22 23 19 17 17 17 17 17 17 17 17 17 17 16 16 17 16 16 16
33 30 28 26 21 18 18 19 20 19 18 18 18 20 19 17 17 16 16 15 16 16 16 16 16 16 16 15 16 15 15 15
31 30 29 25 21 18 18 18 17 17 18 19 18 18 18 17 17 16 15 16 16 16 15 15 15 15 15 15 14 14 14 14
30 30 28 24 21 18 18 17 16 16 17 17 17 17 17 16 16 15 15 15 15 15 14 14 14 14 14 14 14 14 14 13
30 29 27 23 20 17 16 16 15 15 16 16 16 16 16 15 15 15 14 14 14 14 14 14 14 13 13 13 13 13 13 13
30 29 27 24 17 16 15 15 14 14 15 14 15 15 15 15 15 14 14 14 15 15 14 14 14 14 13 12 12 12 12 12
30 29 26 24 20 15 15 14 14 14 14 15 15 15 15 15 15 15 15 15 14 14 14 14 14 13 13 12 11 11 11 11
29 28 26 24 22 18 15 15 16 16 16 16 16 16 16 16 15 14 14 14 14 14 14 13 13 12 12 11 10 10 9 9
29 28 26 24 22 20 17 17 17 17 17 16 16 16 15 15 14 14 13 13 14 13 13 12 11 11 10 10 10 9 9 8
27 27 26 24 22 20 19 17 16 16 16 16 14 14 13 13 12 12 11 11 11 11 11 11 11 10 10 10 10 9 8 8
26 25 24 21 19 18 16 15 15 15 15 15 14 13 12 12 12 12 12 11 12 11 11 11 10 10 9 9 8 7 7 7
26 24 19 17 15 15 15 15 15 15 14 14 13 13 13 13 13 13 13 12 12 11 10 10 10 10 9 9 8 7 6 6
25 23 17 15 15 15 15 14 14 14 14 14 13 13 12 12 11 10 10 10 10 10 10 10 10 9 9 8 7 6 5 5

GFSFLT1_925_temp_210.txt.gz
Temp
36 35 35 35 35 34 31 29 27 26 24 23 23 24 24 23 24 23 24 22 22 22 22 23 23 23 22 21 21 21 21 22
35 36 35 35 35 33 32 30 27 26 24 23 23 23 23 23 23 24 23 22 22 22 21 23 22 22 22 21 20 21 21 21
34 35 35 35 33 31 30 30 28 26 25 24 24 23 23 23 23 23 23 23 22 22 21 21 21 21 21 21 20 20 20 20
34 33 34 33 31 30 29 29 29 27 26 24 24 24 24 23 23 23 23 23 21 21 21 20 20 20 20 20 20 19 19 18
34 34 32 32 31 28 27 27 27 27 26 25 24 24 24 23 23 23 22 22 20 20 20 20 20 19 19 20 19 19 18 17
34 34 33 32 27 25 24 24 25 26 26 25 24 24 22 22 21 21 20 19 19 19 19 19 19 19 19 19 19 18 18 17
34 32 30 28 23 21 22 24 25 25 25 24 23 21 21 20 19 19 18 19 18 18 18 18 18 18 18 18 18 18 17 17
31 28 27 27 21 20 20 23 24 24 24 22 20 21 22 21 18 18 17 17 17 17 17 17 17 17 17 17 17 17 17 16
31 29 28 26 21 20 19 20 19 19 19 19 20 20 20 18 18 17 16 16 17 17 17 17 17 16 16 16 15 15 15 15
29 30 28 24 20 19 18 18 18 18 18 18 19 19 18 18 17 16 16 16 16 16 16 16 15 15 15 15 14 14 14 14
29 29 24 23 20 18 17 17 17 17 17 18 17 17 17 17 16 16 15 16 16 15 15 15 15 14 14 14 14 13 14 14
30 29 24 21 18 17 16 16 16 16 16 16 16 16 16 15 15 15 15 15 14 14 15 14 14 14 14 13 12 12 12 12
30 29 24 19 17 16 15 15 15 15 15 15 15 15 15 15 15 15 15 15 15 15 15 15 14 14 13 12 12 11 11 11
29 28 25 21 18 16 15 14 14 15 15 15 15 15 15 15 15 15 15 15 15 14 14 14 14 13 13 12 11 11 10 10
29 28 25 24 20 17 15 15 15 15 16 16 16 16 16 15 15 15 14 14 14 14 13 13 12 12 11 11 11 10 10 9
27 27 25 23 22 18 16 16 17 18 17 17 16 16 15 14 14 13 13 13 13 12 12 12 11 11 11 11 10 9 9 8
28 26 26 24 22 20 19 18 18 18 17 16 15 14 13 13 12 12 12 12 12 12 11 11 11 11 10 10 11 10 9 8
27 26 25 23 22 20 18 17 17 17 16 15 14 13 12 12 12 12 13 12 12 11 11 11 10 10 10 11 10 9 9 9
26 25 22 19 19 16 15 15 15 15 14 14 13 13 13 12 12 12 11 11 11 11 10 10 10 10 10 10 9 9 8 8